Home > Weather > Quispamsis > Past weeks

Flag for Canada Past Weather in Quispamsis, New Brunswick, Canada — Yesterday and Last 2 Weeks

Now
52 °F

Clear.


Feels Like: 51 °F
Forecast: 54 / 75 °F
Wind: 5 mph from Southwest

Location: Saint John

Current Time: Jul 1, 2016 at 5:03:43 AM

Latest Report: Jul 1, 2016 at 4:00 AM


Visibility: 15 mi

Pressure: 30.01 "Hg

Humidity: 94%

Dew Point: 50 °F

Location of QuispamsisLocation

Past Weather in Quispamsis — Graph

°F

Quispamsis Temperature Yesterday

Maximum temperature yesterday: 75 °F (at 3:00 PM)
Minimum temperature yesterday: 57 °F (at 11:00 PM)
Average temperature yesterday: 64 °F

High & Low Weather Summary for the Past Weeks

 TemperatureHumidityPressure
High82 °F (Jun 26, 3:00 PM)100% (Jun 17, 2:00 AM)30.26 "Hg (Jun 17, 2:00 AM)
Low34 °F (Jun 17, 4:00 AM)29% (Jun 17, 3:00 PM)29.65 "Hg (Jun 21, 6:00 PM)
Average60 °F73%29.99 "Hg
* Reported Jun 16 4:00 AM — Jul 1 4:00 AM, Quispamsis, Weather by CustomWeather, © 2016

Note: Actual official high and low records may vary slightly from our data, if they occured in-between our weather recording intervals... More about our weather records

Advertising

Quispamsis Weather History for the Previous 24 Hours

Scroll right to see more
 ConditionsComfort  
Time TempWeatherWind HumidityBarometerVisibility
4:00 AM
Fri, Jul 1
52 °FClear.5 mph94%30.01 "Hg15 mi
3:00 AM50 °FClear.No wind100%30.00 "Hg15 mi
2:00 AM54 °FClear.3 mph94%30.00 "Hg15 mi
1:00 AM55 °FClear.3 mph94%29.99 "Hg15 mi
12:00 AM55 °FClear.No wind94%29.99 "Hg15 mi
11:00 PM
Thu, Jun 30
57 °FClear.No wind94%29.98 "Hg15 mi
10:00 PM59 °FSunny.6 mph94%29.97 "Hg15 mi
9:00 PM64 °FPassing clouds.6 mph88%29.96 "Hg15 mi
8:00 PM70 °FPassing clouds.7 mph78%29.94 "Hg15 mi
7:00 PM70 °FScattered clouds.9 mph78%29.92 "Hg15 mi
6:00 PM68 °FPartly sunny.12 mph78%29.90 "Hg15 mi
5:00 PM73 °FScattered clouds.10 mph69%29.88 "Hg15 mi
4:00 PM75 °FBroken clouds.12 mph69%29.88 "Hg15 mi
3:00 PM75 °FPartly sunny.9 mph65%29.88 "Hg15 mi
2:00 PM72 °FPartly sunny.6 mph73%29.88 "Hg15 mi
1:00 PM70 °FOvercast.6 mph78%29.88 "Hg15 mi
12:00 PM68 °FOvercast.7 mph83%29.88 "Hg12 mi
11:00 AM64 °FFog.3 mph94%29.88 "Hg6 mi
10:00 AM64 °FFog.6 mph94%29.88 "Hg6 mi
9:00 AM63 °FFog.3 mph100%29.88 "Hg2 mi
8:00 AM59 °FSprinkles. Fog.No wind100%29.88 "Hg1 mi
7:00 AM59 °FSprinkles. Fog.6 mph100%29.88 "Hg1 mi
6:00 AM59 °FSprinkles. Fog.3 mph100%29.87 "Hg1 mi
5:00 AM59 °FSprinkles. Fog.6 mph100%29.87 "Hg1 mi
Weather by CustomWeather, © 2016

See weather overviewHow to use our weather pages